This is the latest recevied weather packets stored in our database for station/object HA9OZD-18. If no packets are shown the sender has not sent any weather packets the latest 10 day(s).
| Time | Temp. | Humidity | Pressure | Rain* | Wind** | Luminosity | Snow |
|---|---|---|---|---|---|---|---|
| 1777758763 | 8.33° C | 48% | 1022.1 hPa | - | - | - | - |
| 1777755163 | 9.44° C | 48% | 1022.2 hPa | - | - | - | - |
| 1777751562 | 10° C | 47% | 1022.2 hPa | - | - | - | - |
| 1777747962 | 10.56° C | 47% | 1021.9 hPa | - | - | - | - |
| 1777744362 | 11.67° C | 43% | 1021.5 hPa | - | - | - | - |
| 1777740762 | 13.89° C | 39% | 1021.5 hPa | - | - | - | - |
| 1777737162 | 15.56° C | 36% | 1021.8 hPa | - | - | - | - |
| 1777733593 | 16.11° C | 35% | 1022 hPa | - | - | - | - |
| 1777733561 | 16.11° C | 35% | 1022 hPa | - | - | - | - |
| 1777729969 | 17.22° C | 32% | 1022.3 hPa | - | - | - | - |
| 1777726369 | 24.44° C | 23% | 1022.7 hPa | - | - | - | - |
| 1777722768 | 18.89° C | 31% | 1023 hPa | - | - | - | - |
| 1777719168 | 17.78° C | 34% | 1023.4 hPa | - | - | - | - |
| 1777715568 | 16.11° C | 36% | 1023.8 hPa | - | - | - | - |
| 1777711968 | 13.33° C | 40% | 1023.9 hPa | - | - | - | - |
| 1777708367 | 11.67° C | 45% | 1024.1 hPa | - | - | - | - |
| 1777704767 | 10° C | 55% | 1024 hPa | - | - | - | - |
| 1777701204 | 8.33° C | 57% | 1023.8 hPa | - | - | - | - |
| 1777701167 | 8.33° C | 57% | 1023.8 hPa | - | - | - | - |
| 1777697912 | 7.22° C | 56% | 1023.6 hPa | - | - | - | - |
| 1777697565 | 7.22° C | 56% | 1023.6 hPa | - | - | - | - |
| 1777693962 | 7.22° C | 55% | 1023.6 hPa | - | - | - | - |
| 1777690361 | 6.67° C | 54% | 1023.4 hPa | - | - | - | - |
| 1777686797 | 7.22° C | 52% | 1023.6 hPa | - | - | - | - |
| 1777686761 | 7.22° C | 52% | 1023.6 hPa | - | - | - | - |
* Rain since midnight (hover to see other rain measurements)
** Current wind speed in m/s (hover to see current wind gust speed)